Regional Weather Roundup
Issued by NWS Boston, MA

Home | Current Version | Previous Version | Text Only | Print | Product List | Glossary On
Versions: 1 2 3 4 5 6 7 8 9 10 11 12 13 14 15 16 17 18 19 20 21 22 23 24 25 26 27 28 29 30 31 32 33 34 35 36 37 38 39 40 41 42 43 44 45 46 47 48 49 50
000
ASUS41 KBOX 031410
RWRBOX

REGIONAL WEATHER ROUNDUP
NATIONAL WEATHER SERVICE TAUNTON MA
900 AM EST SAT DEC 03 2016

NOTE:  "FAIR" INDICATES FEW OR NO CLOUDS BELOW 12,000 FEET WITH NO
SIGNIFICANT WEATHER AND/OR OBSTRUCTIONS TO VISIBILITY.

MAZALL-031500-
EASTERN MASSACHUSETTS

CITY           SKY/WX    TMP DP  RH WIND       PRES   REMARKS
BOSTON         MOSUNNY   41  27  57 W20G29    29.85R WCI  32
BEVERLY        MOSUNNY   41  28  60 NW12G21   29.82R
LAWRENCE       MOSUNNY   41  28  60 NW12G22   29.84R
BEDFORD        MOSUNNY   39  24  55 NW14G23   29.85R WCI  31
BLUE HILL        N/A     37  25  61 NW16G28   29.82R WCI  28
NORWOOD        SUNNY     42  26  53 NW16G24   29.85R
MARSHFIELD     SUNNY     43  27  52 NW10G22   29.84R
PLYMOUTH       SUNNY     41  26  55 NW12G28   29.85R
TAUNTON        SUNNY     42  26  53 NW12G20   29.86R
NEW BEDFORD    SUNNY     43  26  51 NW13G22   29.85R
$$

MAZALL-031500-
CAPE COD AND THE ISLANDS

CITY           SKY/WX    TMP DP  RH WIND       PRES   REMARKS
FALMOUTH       SUNNY     41  27  56 MISG      29.83S
HYANNIS        SUNNY     42  28  57 NW13G24   29.81R
CHATHAM        PTSUNNY   42  29  59 NW10G24   29.82R
PROVINCETOWN   MOSUNNY   43  31  62 NW24G36   29.82R
NANTUCKET      SUNNY     43  28  55 NW22G31   29.83R
MARTHAS VNYRD  SUNNY     43  27  53 NW20G28   29.85R
$$

MAZALL-031500-
CENTRAL AND WESTERN MASSACHUSETTS

CITY           SKY/WX    TMP DP  RH WIND       PRES   REMARKS
WORCESTER      SUNNY     36  24  62 W14G28    29.84R WCI  27
FITCHBURG      SUNNY     41  24  51 NW15G25   29.86R
ORANGE         PTSUNNY   39  26  59 NW15      29.88R WCI  31
SPRINGFIELD    MOSUNNY   40  25  54 NW15      29.90R
WESTFIELD      MOSUNNY   40  26  57 NW14G21   29.92R
NORTH ADAMS    CLOUDY    36  25  64 W18       29.93R WCI  26
PITTSFIELD     CLOUDY    33  25  72 W13G21    29.92R WCI  24
$$

RIZALL-031500-
RHODE ISLAND

CITY           SKY/WX    TMP DP  RH WIND       PRES   REMARKS
PROVIDENCE     MOSUNNY   42  25  50 NW15G25   29.88R
NEWPORT        SUNNY     41  28  60 NW20G26   29.87R WCI  32
BLOCK ISLAND   PTSUNNY   42  28  57 NW20G33   29.90R
SMITHFIELD     SUNNY     40  26  57 NW14G21   29.86R
WESTERLY       SUNNY     43  25  49 NW9G22    29.91R
$$

CTZALL-031500-
CONNECTICUT

CITY           SKY/WX    TMP DP  RH WIND       PRES   REMARKS
BRADLEY INTL   MOSUNNY   41  25  53 NW20G25   29.93R WCI  32
HARTFORD       MOSUNNY   41  26  55 NW14      29.95R
BRIDGEPORT     MOSUNNY   45  28  51 W16       29.96S
GROTON         MOSUNNY   46  29  51 NW13G26   29.92R
NEW HAVEN      MOSUNNY   43  28  55 NW13G22   29.96R
CHESTER        FAIR      41  27  56 NW13G21   29.93R
MERIDEN        MOSUNNY   44  26  49 NW16G29   29.95R
WILLIMANTIC    SUNNY     42  27  55 VRB7G24   29.92R
OXFORD         MOSUNNY   39  27  60 NW9       29.96R
$$

MEZ002-015-021-024-NHZ003-005-008-011-012-014-VTZ005-008-031500-
NORTHERN NEW ENGLAND

CITY           SKY/WX    TMP DP  RH WIND       PRES   REMARKS
PORTLAND ME    MOSUNNY   41  28  60 W12G20    29.79R
BANGOR ME      PTSUNNY   35  31  85 N17G23    29.73R WCI  25
CONCORD NH     CLOUDY    41  27  57 NW9       29.84R
MANCHESTER NH  PTSUNNY   40  26  57 NW15      29.84R WCI  32
NASHUA NH      CLOUDY    40  27  59 NW16G26   29.86R WCI  31
PORTSMOUTH NH  MOSUNNY   41  28  58 NW15G23   29.81R
JAFFREY NH     MOSUNNY   37  24  59 NW10      29.85R WCI  30
KEENE NH       CLOUDY    37  26  64 CALM      29.89R
BURLINGTON VT  FLURRIES  37  29  72 NW15      29.92R WCI  28
MT. WASHINGTON SNOWSHWR  12  12 100 NW47G61     N/A  VSB 0   WCI -13
$$

NYZ052-076-031500-
EASTERN NEW YORK

CITY           SKY/WX    TMP DP  RH WIND       PRES   REMARKS
ALBANY         CLOUDY    38  27  64 W16G22    29.99R WCI  29
NEW YORK CITY  PTSUNNY   44  28  53 NW29G37   30.01S
$$

ANZALL-031500-
MARINE OBSERVATIONS

STATION/POSITION TIME  TEMP    WIND        PRES    VSBY  WAVE
                       AIR SEA DIR/SP/G                  HT/PER
                 (UTC) (F)     (DEG/KT/KT) (MB)    (MI)  (FT/S)
BOSTON BUOY      1250   42 51  300/ 23/ 27 1008.2          3/ 4
BUZZARDS BAY     1300   42     310/ 25/ 28 1011.0R
NANTUCKET SOUND  NOT AVBL
MASS BAY-STELLWA 1304   41 50  310/ 21/ 23 1008.9R  1 7/8  3/ 3
ISLE OF SHOALS   1300   39     300/ 23/ 27 1008.2R
S OF BLOCK IS    1355      56                N/A           9/ 6
$$

......................KEY.........................
  SKY/WX - SKY CONDITION/PRESENT WEATHER
  TMP    - TEMPERATURE IN FAHRENHEIT
  DWPT   - DEWPOINT IN FAHRENHEIT
  RH     - RELATIVE HUMIDITY IN PERCENT
  WIND   - DIRECTION AND SPEED IN MPH
  PRES   - MEAN SEA LEVEL PRESSURE IN INCHES OF HG
  WCI    - WIND CHILL INDEX
  VSB    - VISIBILITY IN MILES
  HX     - HEAT INDEX
  TC     - TEMPERATURE IN CELSIUS
  VRB    - VARIABLE WIND DIRECTION
  N/A    - NOT AVAILABLE



USA.gov is the U.S. government's official web portal to all federal, state and local government web resources and services.